Regional Weather Roundup
Issued by NWS

Home | Current Version | Previous Version | Graphics & Text | Print | Product List | Glossary On
Versions: 1 2 3 4 5 6 7 8 9 10 11 12 13 14 15 16 17 18 19 20 21 22 23 24 25 26 27
000
ASUS45 KBOU 242006
RWRCO

WEATHER ROUNDUP FOR COLORADO
NATIONAL WEATHER SERVICE DENVER/BOULDER CO
200 PM MDT THU APR 24 2014

NOTE: "FAIR" INDICATES FEW OR NO CLOUDS BELOW 12000 FEET WITH NO
SIGNIFICANT WEATHER AND/OR OBSTRUCTIONS TO VISIBILITY.

COZ001>005-013-030-031-242100-
...NORTHWEST COLORADO...

CITY           SKY/WX    TMP DP  RH WIND       PRES   REMARKS
CRAIG          SUNNY     54  16  22 W10       30.03F
HAYDEN         MOSUNNY   48  19  32 N7        30.07F
MEEKER         SUNNY     57  12  17 SW16      30.04F
MOUNT WERNER   MOSUNNY   34  12  40 W12G21    30.14F WCI  25
STEAMBOAT SPGS MOSUNNY   49  11  21 SW6       30.06F
WALDEN         PTSUNNY   43  10  26 S15G22    30.04S
$$

COZ006>008-011-242100-
...WEST CENTRAL VALLEYS...

CITY           SKY/WX    TMP DP  RH WIND       PRES   REMARKS
GRAND JUNCTION SUNNY     58  16  19 MISG      30.07F
MONTROSE       SUNNY     58  10  15 N8        30.08F
EAGLE          MOSUNNY   55  12  18 W12G23    30.06F
RIFLE          SUNNY     58  14  17 W14       30.06F
DELTA          NOT AVBL
NUCLA          NOT AVBL
$$

COZ017>023-064>068-242100-
...SOUTHWEST COLORADO...

CITY           SKY/WX    TMP DP  RH WIND       PRES   REMARKS
DURANGO        PTSUNNY   54   6  14 N7        30.13F
CORTEZ         SUNNY     61  10  13 S7        30.10F
PAGOSA SPRINGS PTSUNNY   54   4  13 SW7       30.14F
TELLURIDE      MOSUNNY   50   3  14 SW7       30.14F
WOLF CREEK PAS PTSUNNY   32  10  40 SW9G23    30.24S WCI  24
$$

COZ009-010-012-014-032>034-037-058>063-242100-
...CENTRAL COLORADO...

CITY           SKY/WX    TMP DP  RH WIND       PRES   REMARKS
ASPEN          MOSUNNY   53  12  19 N9        30.06F
BUENA VISTA    SUNNY     59   4  11 NW16G26   30.01F
COPPER MTN     MOSUNNY   37   5  25 W18G35    30.16F
BERTHOUD PASS  CLOUDY    28  18  64 NW30G36   30.14R WCI  13
COTTONWOOD PAS SUNNY     52   1  12 NW6       30.08F
GUNNISON       MOSUNNY   54  10  17 SW16G23   30.10F
KREMMLING      MOSUNNY   54   7  15 SW15G22   30.06F
LEADVILLE      PTSUNNY   43  11  27 W13G22    30.10F
MONARCH PASS   MOSUNNY   34   9  35 W38G45    30.28S WCI  19
SALIDA         SUNNY     62   5  10 W25G32    30.09S
SUNLIGHT       MOSUNNY   41  18  38 CALM      30.19S
WILKERSON PASS SUNNY     41   5  22 W12G21    30.14R
$$

COZ069>075-242100-
...SAN LUIS VALLEY/SANGRE DE CRISTO MOUNTAINS...

CITY           SKY/WX    TMP DP  RH WIND       PRES   REMARKS
ALAMOSA        MOSUNNY   56   9  15 E9        30.06F
LA VETA PASS   PTSUNNY   45  10  24 SW13G22   30.14R
SAGUACHE       MOSUNNY   55   9  15 SE5       30.07F
$$

COZ035-036-038>040-242100-
...NORTHERN COLORADO FRONT RANGE...

CITY           SKY/WX    TMP DP  RH WIND       PRES   REMARKS
DENVER INTL AP PTSUNNY   58  21  24 E9        29.93F
DMNS CITY PARK   N/A     61  22  22 E8G14     29.91F
AURORA         MOSUNNY   57  25  28 S7        29.94F
FRONT RANGE AP MOSUNNY   59  27  29 E8        29.95F
ERIE MUNI ARPT SUNNY     62  22  21 E8        29.90F
BOULDER MUN AP SUNNY     63  23  22 E5        29.90F
CENTENNIAL     PTSUNNY   58  23  26 E9        29.93F
BROOMFIELD     NOT AVBL
FORT COLLINS   MOSUNNY   57  21  24 CALM      29.93F
LONGMONT       NOT AVBL
$$

COZ041-046-047-076>085-087-088-242100-
...PIKES PEAK/PALMER DIVIDE AND SOUTHERN FOOTHILLS...

CITY           SKY/WX    TMP DP  RH WIND       PRES   REMARKS
COLO. SPRINGS  MOSUNNY   60  16  18 S17G25    29.96F
A. F. ACADEMY  SUNNY     58  18  21 SE13G20   29.95F
ELLICOTT       NOT AVBL
FALCON         SUNNY     57  17  21 SE10G21   29.99F
FORT CARSON    SUNNY     62  18  18 SE18G25   29.94F
LIMON          SUNNY     57  14  18 VRB5      29.97F
MONUMENT HILL  MOSUNNY   54  27  35 SE5       29.96F
TRINIDAD       PTSUNNY   59  24  26 SE6       29.98F
$$

COZ042>045-048>051-090-091-242100-
...NORTHEAST COLORADO...

CITY           SKY/WX    TMP DP  RH WIND       PRES   REMARKS
GREELEY ARPT   MOSUNNY   63  18  17 SE8       29.93F
AKRON          SUNNY     62  18  18 W12G23    29.93F
BURLINGTON     SUNNY     64  10  12 NW14G21   29.95F
WRAY           SUNNY     67  11  11 W9G23     29.91F
STERLING       NOT AVBL
HOLYOKE        NOT AVBL
FORT MORGAN    NOT AVBL
$$

COZ086-089-092>099-242100-
...SOUTHEAST COLORADO...

CITY           SKY/WX    TMP DP  RH WIND       PRES   REMARKS
PUEBLO         SUNNY     64  21  19 S13G21    29.93F
LA JUNTA         N/A     63  18  17 MISG      29.97F
LAMAR          SUNNY     65  16  15 VRB5      29.96F
SPRINGFIELD      N/A     63  23  21 NW9       29.99F
$$



USA.gov is the U.S. government's official web portal to all federal, state and local government web resources and services.